Location: Newark
(59.8814°N, 10.8258°E)
Time: 11:19:44
(UTC+00:00)

Envisat - Pass Details

Date: 24 January 2020
Orbit: 764 x 766 km, 98.1° (Epoch: 25 February)

Event Time Altitude Azimuth Distance (km) Brightness Sun altitude
Rises 05:04:25 0° 20° (NNE) 3,250 6.4 -19.6°
Reaches altitude 10° 05:07:06 10° 33° (NNE) 2,318 5.8 -19.3°
Maximum altitude 05:11:22 26° 90° (E) 1,473 5.3 -18.8°
Drops below altitude 10° 05:15:37 10° 147° (SSE) 2,303 6.0 -18.3°
Sets 05:18:16 0° 159° (SSE) 3,225 6.6 -17.9°
